DW3263 Weather Reports


Display with metric or nautical units.
time (UTC)temp
F
wind
direction
speed
MPH
gust
MPH
rain 1hr
in
rain 24hr
in
rain mn
in
humidity
%
barometer
mb
20260905175020 77 315 1.0 5.0 0.00 0.00 0.00 63 1010.8
20260905174020 78 0.0 1.0 0.00 0.00 0.00 64 1010.8
20260905173230 78 315 1.0 4.0 0.00 0.00 0.00 63 1010.9
20260905172020 79 315 1.0 5.0 0.00 0.00 0.00 63 1011.0
20260905171020 79 315 2.0 6.0 0.00 0.00 0.00 64 1011.2
20260905170020 78 315 2.0 6.0 0.00 0.00 0.00 63 1011.3
20260905165019 78 315 1.0 4.0 0.00 0.00 0.00 63 1011.5
20260905164020 78 315 1.0 4.0 0.00 0.00 0.00 63 1011.5
20260905163021 77 315 1.0 4.0 0.00 0.00 0.00 63 1011.4
20260905162020 76 315 1.0 4.0 0.00 0.00 0.00 64 1011.6
20260905161020 76 315 2.0 8.0 0.00 0.00 0.00 64 1011.7
20260905160233 76 315 1.0 3.0 0.00 0.00 0.00 64 1011.8
20260905155020 76 315 1.0 4.0 0.00 0.00 0.00 64 1011.9
20260905154020 76 315 1.0 5.0 0.00 0.00 0.00 63 1011.9
20260905153020 75 0.0 2.0 0.00 0.00 0.00 61 1012.0
20260905152232 75 315 1.0 3.0 0.00 0.00 0.00 62 1011.9
20260905151020 75 315 4.0 7.0 0.00 0.00 0.00 62 1011.9
20260905150020 75 315 1.0 3.0 0.00 0.00 0.00 62 1011.9
20260905145021 75 315 2.0 5.0 0.00 0.00 0.00 62 1011.8
20260905144020 75 315 3.0 7.0 0.00 0.00 0.00 63 1011.9
20260905143020 76 315 2.0 4.0 0.00 0.00 0.00 60 1011.9
20260905142020 76 315 1.0 3.0 0.00 0.00 0.00 60 1011.7
20260905141020 74 315 1.0 5.0 0.00 0.00 0.00 59 1011.5
20260905140020 74 315 2.0 4.0 0.00 0.00 0.00 61 1011.3
20260905135020 74 315 1.0 3.0 0.00 0.00 0.00 48 1011.4
20260905134020 74 315 1.0 5.0 0.00 0.00 0.00 59 1011.5
20260905133020 74 315 1.0 7.0 0.00 0.00 0.00 53 1011.7
20260905132233 73 315 1.0 3.0 0.00 0.00 0.00 44 1011.6
20260905131020 73 315 1.0 3.0 0.00 0.00 0.00 46 1011.6
20260905130020 73 0.0 2.0 0.00 0.00 0.00 35 1011.6
20260905125020 73 0.0 0.0 0.00 0.00 0.00 14 1011.5
20260905124232 72 315 1.0 2.0 0.00 0.00 0.00 6 1011.5
20260905123020 73 315 2.0 4.0 0.00 0.00 0.00 11 1011.4
20260905122020 73 315 1.0 3.0 0.00 0.00 0.00 100 1011.2
20260905121020 72 0.0 2.0 0.00 0.00 0.00 100 1011.1
20260905120021 71 0.0 0.0 0.00 0.00 0.00 100 1011.1
20260905115020 68 0.0 0.0 0.00 0.00 0.00 100 1011.1
20260905114020 67 0.0 1.0 0.00 0.00 0.00 100 1011.3
20260905113020 66 0.0 1.0 0.00 0.00 0.00 100 1011.0
20260905112020 65 0.0 0.0 0.00 0.00 0.00 100 1010.9
20260905111020 65 0.0 0.0 0.00 0.00 0.00 100 1010.9
20260905110020 65 0.0 0.0 0.00 0.00 0.00 100 1010.8
20260905105020 66 0.0 0.0 0.00 0.00 0.00 100 1010.8
20260905104020 67 0.0 0.0 0.00 0.00 0.00 100 1010.6
20260905103020 68 0.0 0.0 0.00 0.00 0.00 100 1010.4
20260905102020 69 0.0 0.0 0.00 0.00 0.00 100 1010.4
20260905101020 70 0.0 0.0 0.00 0.00 0.00 100 1010.5
20260905100019 70 315 1.0 3.0 0.00 0.00 0.00 100 1010.3
20260905095019 71 0.0 1.0 0.00 0.00 0.00 100 1010.2
20260905094020 71 0.0 1.0 0.00 0.00 0.00 100 1010.3
20260905093020 71 315 1.0 3.0 0.00 0.00 0.00 100 1010.2
20260905092444 71 0.0 2.0 0.00 0.00 0.00 100 1010.1
20260905091018 72 0.0 2.0 0.00 0.00 0.00 100 1010.2
20260905090233 72 315 1.0 5.0 0.00 0.00 0.00 100 1010.1
20260905085019 71 0.0 3.0 0.00 0.00 0.00 100 1010.1
20260905084230 71 0.0 3.0 0.00 0.00 0.00 100 1010.1
20260905083020 70 315 1.0 4.0 0.00 0.00 0.00 100 1010.1
20260905082020 68 315 1.0 3.0 0.00 0.00 0.00 100 1010.1
20260905081018 68 315 1.0 3.0 0.00 0.00 0.00 100 1010.2
20260905080021 69 0.0 1.0 0.00 0.00 0.00 100 1010.3
20260905075020 69 0.0 0.0 0.00 0.00 0.00 100 1010.2
20260905074019 69 0.0 2.0 0.00 0.00 0.00 100 1010.1
20260905073018 69 0.0 2.0 0.00 0.00 0.00 100 1010.2
20260905072021 69 0.0 0.0 0.00 0.00 0.00 100 1010.2
20260905071233 69 0.0 1.0 0.00 0.00 0.00 100 1010.3
20260905070019 69 0.0 0.0 0.00 0.00 0.00 100 1010.3
20260905065019 69 0.0 2.0 0.00 0.00 0.00 100 1010.5
20260905064020 69 315 1.0 3.0 0.00 0.00 0.00 100 1010.5
20260905063019 69 315 2.0 4.0 0.00 0.00 0.00 100 1010.7
20260905062019 69 315 1.0 2.0 0.00 0.00 0.00 100 1010.7
20260905061234 70 0.0 1.0 0.00 0.00 0.00 100 1010.6
20260905060020 70 0.0 1.0 0.00 0.00 0.00 100 1010.7
20260905055019 70 315 1.0 2.0 0.00 0.00 0.00 100 1010.7
20260905054020 70 315 1.0 4.0 0.00 0.00 0.00 100 1010.9
20260905053019 70 315 1.0 5.0 0.00 0.00 0.00 100 1010.8
20260905052020 70 315 1.0 3.0 0.00 0.00 0.00 100 1011.0
20260905051020 70 0.0 1.0 0.00 0.00 0.00 100 1011.1
20260905050019 70 0.0 2.0 0.00 0.00 0.00 100 1011.3
20260905045018 70 315 1.0 4.0 0.00 0.00 0.00 100 1011.5
20260905044020 70 315 2.0 4.0 0.00 0.00 0.00 100 1011.5
20260905043019 70 315 2.0 6.0 0.00 0.00 0.00 100 1011.4
20260905042019 70 315 1.0 4.0 0.00 0.00 0.00 100 1011.3
20260905041020 69 0.0 0.0 0.00 0.00 0.00 100 1011.3
20260905040019 69 0.0 0.0 0.00 0.00 0.00 100 1011.2
20260905035019 69 0.0 0.0 0.00 0.00 0.00 100 1011.2
20260905034020 69 0.0 0.0 0.00 0.00 0.00 100 1011.2
20260905033020 70 0.0 1.0 0.00 0.01 0.00 100 1011.1
20260905032020 70 0.0 1.0 0.00 0.01 0.00 100 1011.1
20260905031020 70 0.0 0.0 0.00 0.01 0.00 100 1010.9
20260905030020 70 0.0 2.0 0.00 0.01 0.00 100 1010.9
20260905025020 71 0.0 1.0 0.00 0.01 0.00 100 1010.9
20260905024020 71 315 1.0 3.0 0.00 0.01 0.00 100 1010.8
20260905023032 72 0.0 2.0 0.00 0.01 0.00 100 1010.8
20260905022020 73 0.0 0.0 0.00 0.01 0.00 100 1010.7
20260905021231 74 0.0 0.0 0.00 0.01 0.00 100 1010.7
20260905020020 75 0.0 0.0 0.00 0.01 0.00 100 1010.6
20260905015020 76 0.0 2.0 0.00 0.01 0.00 100 1010.7
20260905014020 77 315 1.0 4.0 0.00 0.02 0.00 100 1010.7
20260905013020 77 315 2.0 4.0 0.00 0.03 0.00 100 1010.7
20260905012020 76 315 2.0 5.0 0.00 0.03 0.00 100 1010.7
20260905011232 76 315 1.0 4.0 0.00 0.03 0.00 100 1010.6
20260905010020 75 315 1.0 2.0 0.00 0.03 0.00 100 1010.5
20260905005234 75 0.0 1.0 0.00 0.03 0.00 100 1010.5
20260905004020 75 0.0 0.0 0.00 0.03 0.00 100 1010.6
20260905003020 76 0.0 1.0 0.00 0.03 0.00 100 1010.5
20260905002444 77 0.0 0.0 0.00 0.03 0.00 100 1010.3
20260905001020 77 0.0 0.0 0.00 0.03 0.00 100 1010.3
20260905000020 78 0.0 0.0 0.00 0.03 0.00 100 1010.2
20260904235447 78 0.0 0.0 0.00 0.03 0.00 100 1010.1
20260904234443 78 0.0 0.0 0.00 0.03 0.00 6 1010.1
20260904233020 79 0.0 0.0 0.00 0.03 0.00 27 1010.1
20260904232020 80 0.0 0.0 0.00 0.03 0.00 31 1010.1
20260904231020 80 0.0 2.0 0.00 0.03 0.00 41 1010.3
20260904230020 81 315 1.0 4.0 0.00 0.03 0.00 42 1010.3
20260904225020 81 315 1.0 3.0 0.00 0.03 0.00 46 1010.3
20260904224020 82 315 2.0 5.0 0.00 0.03 0.00 52 1010.1
20260904223020 83 315 1.0 4.0 0.00 0.03 0.00 51 1010.2
20260904222020 84 315 1.0 3.0 0.00 0.03 0.00 51 1010.2
20260904221020 84 0.0 2.0 0.00 0.03 0.00 51 1010.3
20260904220020 85 0.0 2.0 0.00 0.03 0.00 52 1010.3
20260904215020 85 0.0 1.0 0.00 0.03 0.00 51 1010.4
20260904214445 84 0.0 3.0 0.00 0.03 0.00 55 1010.7
20260904213020 84 315 1.0 4.0 0.00 0.03 0.00 60 1010.8
20260904212020 84 315 2.0 5.0 0.00 0.03 0.00 61 1010.9
20260904211020 83 315 1.0 2.0 0.00 0.03 0.00 53 1010.9
20260904210020 83 315 1.0 4.0 0.00 0.03 0.00 60 1010.8
20260904205020 84 315 1.0 4.0 0.00 0.03 0.00 62 1010.8
20260904204020 86 315 2.0 5.0 0.00 0.03 0.00 62 1010.9
20260904203030 85 315 2.0 5.0 0.00 0.03 0.00 62 1010.8
20260904202020 85 315 5.0 8.0 0.00 0.03 0.00 62 1011.0
20260904201230 85 315 5.0 11.0 0.00 0.03 0.00 61 1011.0
20260904200019 85 315 3.0 9.0 0.00 0.03 0.00 62 1011.0
20260904195020 85 293 2.0 8.0 0.00 0.03 0.00 62 1010.9
20260904194020 84 293 2.0 4.0 0.00 0.03 0.00 62 1011.1
20260904193020 83 293 3.0 9.0 0.00 0.03 0.00 62 1011.2
20260904192020 83 293 1.0 4.0 0.00 0.03 0.00 62 1011.3
20260904191230 83 315 2.0 8.0 0.00 0.03 0.00 62 1011.3
20260904190020 84 293 3.0 9.0 0.00 0.03 0.00 62 1011.5
20260904185019 84 293 2.0 6.0 0.00 0.03 0.00 62 1011.8
20260904184233 84 293 3.0 8.0 0.00 0.03 0.00 62 1012.1
20260904183020 84 293 3.0 9.0 0.00 0.03 0.00 61 1012.4
20260904182021 83 293 3.0 7.0 0.00 0.03 0.00 62 1012.4
20260904181231 83 293 3.0 8.0 0.00 0.03 0.00 59 1012.5
20260904180020 82 293 3.0 6.0 0.00 0.03 0.00 61 1012.7